User: anonymous   Login
Location: Newark
(44.1667°N, 8.2500°E)
Time: 06:03:18
(UTC+00:00)
Language:

S-56A Canister/Altair - Orbit

View from above orbital plane
View from above orbital plane
View from above satellite
View from above satellite

Ground track
Ground track

The orbit data is extracted from the following two-line orbital elements,

1    82U 61004B   19342.85776632 -.00000015 +00000-0 +12370-4 0  9998
2    82 038.8600 187.8117 1174987 238.9115 109.1074 12.26056446784294
Epoch (UTC): 08 December 2019 20:35:11
Eccentricity: 0.1174987
inclination: 38.8600°
perigee height: 633 km
apogee height: 2500 km
right ascension of ascending node: 187.8117°
argument of perigee: 238.9115°
revolutions per day: 12.26056446
mean anomaly at epoch: 109.1074°
orbit number at epoch: 78429

The dashed part of the orbit path shows where the satellite is in the earth's shadow,  

DLR